Location: Góry Miechowskie
(50.3599°N, 20.1803°E)
Time: 15:41:53
(UTC+00:00)

Vanguard 1 Rocket - Pass Details

Date: 15 September 2024
Orbit: 650 x 4218 km, 34.3° (Epoch: 07 October)

Event Time Altitude Azimuth Distance (km) Brightness Sun altitude
Rises 10:45:48 0° 278° (W) 8,415 12.3 42.3°
Maximum altitude 11:03:58 10° 241° (WSW) 7,177 12.5 42.0°
Drops below altitude 10° 11:04:06 10° 241° (WSW) 7,172 12.5 42.0°
Sets 11:20:02 0° 201° (SSW) 7,147 12.8 41.4°
